QPF
0.00 0.00 0.01 0.01 0.01 0.02 0.03 0.03 0.04 0.04 0.03 0.03 0.04 0.04 0.06 0.07 0.08 0.07 0.08 0.07 0.08 0.09 0.07 0.06 0.08 0.09 0.09 0.09 0.07 0.06 0.06 0.04 0.03 0.04 0.04 0.03 0.02 0.02 0.02 0.03 0.03 0.02 0.02
0.00 0.00 0.00 0.01 0.01 0.01 0.02 0.02 0.02 0.02 0.02 0.04 0.05 0.04 0.05 0.05 0.07 0.08 0.08 0.07 0.06 0.06 0.06 0.05 0.05 0.06 0.07 0.07 0.05 0.06 0.05 0.04 0.04 0.05 0.05 0.04 0.03 0.03 0.02 0.02 0.02 0.02 0.02
0.00 0.00 0.00 0.01 0.01 0.02 0.02 0.02 0.02 0.01 0.01 0.02 0.03 0.04 0.04 0.04 0.06 0.07 0.05 0.03 0.03 0.04 0.05 0.03 0.04 0.05 0.04 0.04 0.05 0.05 0.05 0.05 0.05 0.05 0.05 0.06 0.06 0.05 0.03 0.02 0.03 0.03 0.03
0.00 0.00 0.00 0.00 0.01 0.02 0.02 0.02 0.02 0.01 0.01 0.01 0.01 0.02 0.03 0.05 0.07 0.08 0.04 0.04 0.03 0.03 0.03 0.03 0.04 0.05 0.04 0.05 0.04 0.03 0.04 0.05 0.05 0.05 0.05 0.06 0.06 0.07 0.06 0.05 0.04 0.04 0.04
0.00 0.00 0.00 0.00 0.00 0.01 0.02 0.01 0.02 0.02 0.01 0.01 0.01 0.02 0.03 0.05 0.06 0.07 0.06 0.05 0.04 0.03 0.02 0.03 0.04 0.05 0.05 0.06 0.05 0.05 0.04 0.04 0.05 0.05 0.05 0.05 0.06 0.06 0.06 0.07 0.07 0.05 0.04
0.00 0.00 0.00 0.00 0.00 0.00 0.01 0.01 0.02 0.03 0.02 0.02 0.02 0.02 0.02 0.03 0.03 0.04 0.05 0.04 0.04 0.03 0.03 0.03 0.04 0.03 0.05 0.06 0.06 0.05 0.04 0.04 0.04 0.05 0.05 0.05 0.06 0.06 0.06 0.06 0.07 0.05 0.03
0.00 0.00 0.00 0.00 0.00 0.00 0.00 0.01 0.02 0.02 0.02 0.02 0.02 0.02 0.02 0.02 0.03 0.03 0.03 0.02 0.02 0.03 0.03 0.02 0.03 0.04 0.06 0.05 0.05 0.05 0.05 0.04 0.05 0.05 0.04 0.04 0.05 0.05 0.06 0.06 0.06 0.05 0.03
0.00 0.00 0.00 0.00 0.00 0.00 0.00 0.01 0.01 0.01 0.01 0.01 0.01 0.01 0.01 0.01 0.03 0.04 0.02 0.02 0.01 0.02 0.02 0.02 0.02 0.03 0.04 0.03 0.04 0.05 0.06 0.05 0.05 0.04 0.05 0.05 0.04 0.06 0.07 0.07 0.08 0.06 0.04
0.00 0.00 0.00 0.00 0.00 0.00 0.00 0.00 0.01 0.00 0.00 0.00 0.00 0.00 0.00 0.01 0.03 0.04 0.02 0.01 0.02 0.02 0.03 0.02 0.02 0.03 0.03 0.04 0.04 0.05 0.07 0.05 0.05 0.04 0.05 0.04 0.04 0.05 0.07 0.08 0.09 0.07 0.05
0.00 0.00 0.00 0.00 0.00 0.01 0.01 0.00 0.00 0.00 0.00 0.00 0.00 0.00 0.00 0.01 0.02 0.03 0.02 0.02 0.02 0.03 0.03 0.03 0.03 0.02 0.03 0.04 0.06 0.07 0.07 0.07 0.06 0.05 0.05 0.05 0.05 0.06 0.06 0.07 0.07 0.08 0.07
0.00 0.00 0.00 0.00 0.01 0.01 0.01 0.00 0.00 0.00 0.00 0.00 0.00 0.00 0.00 0.00 0.01 0.01 0.01 0.01 0.02 0.03 0.04 0.05 0.05 0.04 0.04 0.05 0.06 0.06 0.06 0.08 0.07 0.05 0.05 0.06 0.06 0.06 0.05 0.05 0.06 0.06 0.07
0.00 0.00 0.00 0.01 0.01 0.01 0.01 0.00 0.00 0.00 0.00 0.00 0.00 0.00 0.00 0.00 0.00 0.00 0.01 0.01 0.02 0.03 0.06 0.07 0.08 0.07 0.07 0.06 0.06 0.05 0.05 0.04 0.04 0.04 0.05 0.05 0.06 0.05 0.05 0.05 0.04 0.05 0.06
0.00 0.00 0.00 0.00 0.01 0.01 0.01 0.00 0.00 0.00 0.00 0.00 0.00 0.00 0.00 0.00 0.00 0.00 0.01 0.01 0.02 0.04 0.07 0.09 0.10 0.08 0.06 0.04 0.04 0.05 0.05 0.03 0.03 0.03 0.03 0.03 0.04 0.03 0.04 0.04 0.04 0.04 0.04
0.00 0.01 0.01 0.01 0.01 0.00 0.01 0.01 0.01 0.00 0.00 0.00 0.00 0.00 0.00 0.00 0.00 0.01 0.01 0.01 0.02 0.04 0.06 0.06 0.06 0.05 0.04 0.04 0.04 0.04 0.04 0.04 0.03 0.02 0.02 0.02 0.02 0.02 0.02 0.03 0.03 0.03 0.03
0.02 0.02 0.02 0.02 0.01 0.01 0.01 0.01 0.01 0.00 0.00 0.00 0.00 0.01 0.00 0.00 0.01 0.01 0.01 0.01 0.01 0.02 0.03 0.03 0.03 0.03 0.03 0.03 0.03 0.03 0.03 0.03 0.02 0.02 0.02 0.02 0.02 0.02 0.02 0.02 0.02 0.03 0.03
0.02 0.02 0.03 0.02 0.03 0.02 0.01 0.01 0.01 0.01 0.01 0.01 0.02 0.02 0.02 0.02 0.02 0.02 0.02 0.02 0.01 0.01 0.01 0.01 0.01 0.01 0.02 0.02 0.02 0.02 0.03 0.03 0.03 0.03 0.03 0.02 0.02 0.03 0.02 0.02 0.02 0.02 0.03
0.01 0.01 0.01 0.02 0.04 0.05 0.02 0.01 0.01 0.01 0.02 0.03 0.04 0.05 0.05 0.05 0.04 0.03 0.02 0.02 0.01 0.01 0.01 0.01 0.01 0.01 0.01 0.02 0.02 0.04 0.05 0.04 0.03 0.03 0.03 0.02 0.02 0.03 0.03 0.02 0.02 0.02 0.02
0.01 0.01 0.01 0.01 0.01 0.01 0.01 0.01 0.01 0.02 0.02 0.03 0.04 0.07 0.09 0.08 0.06 0.04 0.03 0.02 0.02 0.02 0.01 0.02 0.02 0.02 0.02 0.02 0.03 0.04 0.04 0.03 0.03 0.03 0.02 0.02 0.02 0.03 0.03 0.03 0.02 0.02 0.02
0.00 0.00 0.00 0.01 0.00 0.01 0.01 0.02 0.01 0.02 0.02 0.03 0.04 0.06 0.08 0.07 0.06 0.05 0.04 0.03 0.02 0.02 0.01 0.02 0.02 0.02 0.03 0.03 0.03 0.03 0.02 0.02 0.03 0.03 0.02 0.02 0.02 0.03 0.04 0.03 0.03 0.03 0.04
0.00 0.00 0.00 0.00 0.00 0.01 0.01 0.01 0.02 0.02 0.02 0.03 0.04 0.06 0.06 0.06 0.05 0.04 0.03 0.03 0.03 0.02 0.03 0.03 0.04 0.03 0.03 0.03 0.02 0.02 0.03 0.05 0.05 0.03 0.02 0.02 0.03 0.04 0.05 0.04 0.04 0.04 0.04
0.00 0.00 0.00 0.00 0.00 0.00 0.00 0.01 0.01 0.02 0.03 0.03 0.04 0.05 0.05 0.04 0.03 0.03 0.03 0.03 0.04 0.04 0.04 0.04 0.03 0.03 0.02 0.01 0.01 0.01 0.01 0.02 0.02 0.02 0.01 0.02 0.02 0.03 0.04 0.04 0.03 0.04 0.04
0.00 0.00 0.00 0.00 0.01 0.01 0.01 0.01 0.01 0.02 0.02 0.03 0.03 0.04 0.04 0.03 0.03 0.03 0.03 0.03 0.02 0.02 0.03 0.03 0.03 0.02 0.02 0.01 0.01 0.02 0.01 0.01 0.01 0.01 0.01 0.01 0.02 0.02 0.04 0.05 0.04 0.04 0.04
0.00 0.00 0.00 0.01 0.01 0.01 0.02 0.02 0.02 0.02 0.02 0.02 0.03 0.03 0.03 0.03 0.02 0.02 0.02 0.03 0.03 0.02 0.02 0.02 0.02 0.02 0.02 0.01 0.01 0.01 0.01 0.01 0.01 0.01 0.01 0.01 0.01 0.02 0.03 0.04 0.04 0.04 0.03
0.01 0.00 0.01 0.00 0.00 0.01 0.02 0.02 0.02 0.02 0.02 0.02 0.03 0.03 0.02 0.02 0.02 0.01 0.02 0.03 0.03 0.03 0.03 0.03 0.02 0.02 0.01 0.00 0.00 0.00 0.00 0.01 0.01 0.01 0.02 0.02 0.02 0.02 0.02 0.02 0.02 0.02 0.02
0.01 0.01 0.01 0.01 0.01 0.01 0.01 0.01 0.01 0.01 0.02 0.02 0.02 0.02 0.03 0.03 0.03 0.03 0.03 0.04 0.04 0.03 0.03 0.02 0.02 0.02 0.02 0.01 0.00 0.00 0.00 0.01 0.01 0.02 0.02 0.02 0.02 0.02 0.02 0.02 0.02 0.02 0.02
0.01 0.01 0.01 0.01 0.01 0.01 0.01 0.01 0.01 0.01 0.01 0.01 0.01 0.01 0.01 0.02 0.02 0.02 0.03 0.04 0.04 0.04 0.04 0.03 0.02 0.02 0.03 0.02 0.02 0.01 0.01 0.01 0.02 0.01 0.01 0.01 0.01 0.01 0.01 0.02 0.02 0.02 0.02
MSLP
1011.43 1011.55 1011.71 1011.89 1012.11 1012.34 1012.59 1012.82 1013.02 1013.16 1013.22 1013.19 1013.08 1012.91 1012.72 1012.54 1012.42 1012.37 1012.41 1012.51 1012.66 1012.82 1012.98 1013.09 1013.16 1013.18 1013.18 1013.17 1013.15 1013.14 1013.12 1013.08 1013.00 1012.86 1012.66 1012.40 1012.11 1011.81 1011.55 1011.35 1011.24 1011.25 1011.36
1011.07 1011.23 1011.44 1011.67 1011.93 1012.20 1012.47 1012.73 1012.95 1013.11 1013.18 1013.17 1013.07 1012.90 1012.70 1012.49 1012.33 1012.23 1012.22 1012.28 1012.41 1012.57 1012.74 1012.88 1012.99 1013.05 1013.06 1013.05 1013.03 1013.00 1012.96 1012.91 1012.84 1012.74 1012.59 1012.39 1012.16 1011.91 1011.67 1011.45 1011.29 1011.20 1011.21
1010.60 1010.83 1011.10 1011.40 1011.71 1012.03 1012.33 1012.62 1012.87 1013.06 1013.17 1013.20 1013.13 1012.99 1012.79 1012.58 1012.38 1012.24 1012.18 1012.20 1012.29 1012.43 1012.59 1012.75 1012.87 1012.95 1012.99 1012.98 1012.95 1012.91 1012.86 1012.82 1012.77 1012.71 1012.62 1012.50 1012.34 1012.15 1011.93 1011.71 1011.50 1011.33 1011.22
1010.07 1010.38 1010.73 1011.11 1011.48 1011.85 1012.19 1012.51 1012.80 1013.03 1013.19 1013.27 1013.26 1013.17 1013.00 1012.80 1012.59 1012.42 1012.31 1012.27 1012.31 1012.42 1012.56 1012.70 1012.83 1012.91 1012.95 1012.95 1012.91 1012.87 1012.82 1012.79 1012.77 1012.75 1012.73 1012.68 1012.60 1012.47 1012.28 1012.06 1011.81 1011.57 1011.36
1009.55 1009.96 1010.41 1010.86 1011.30 1011.71 1012.10 1012.45 1012.76 1013.03 1013.25 1013.39 1013.44 1013.40 1013.28 1013.11 1012.90 1012.71 1012.56 1012.47 1012.46 1012.51 1012.61 1012.72 1012.83 1012.91 1012.94 1012.93 1012.90 1012.85 1012.81 1012.79 1012.80 1012.83 1012.87 1012.89 1012.87 1012.79 1012.64 1012.43 1012.15 1011.85 1011.54
1009.15 1009.65 1010.20 1010.73 1011.23 1011.68 1012.08 1012.45 1012.78 1013.07 1013.32 1013.51 1013.63 1013.65 1013.58 1013.44 1013.25 1013.05 1012.87 1012.73 1012.66 1012.66 1012.71 1012.78 1012.86 1012.91 1012.93 1012.92 1012.88 1012.83 1012.80 1012.79 1012.83 1012.89 1012.98 1013.05 1013.09 1013.06 1012.94 1012.73 1012.45 1012.10 1011.73
1008.97 1009.56 1010.18 1010.78 1011.31 1011.78 1012.18 1012.53 1012.86 1013.16 1013.42 1013.64 1013.80 1013.87 1013.85 1013.75 1013.58 1013.37 1013.17 1013.00 1012.88 1012.82 1012.81 1012.84 1012.88 1012.91 1012.91 1012.88 1012.83 1012.78 1012.75 1012.75 1012.80 1012.89 1013.00 1013.12 1013.19 1013.20 1013.12 1012.93 1012.64 1012.28 1011.88
1009.07 1009.74 1010.41 1011.04 1011.58 1012.03 1012.41 1012.73 1013.02 1013.29 1013.54 1013.77 1013.94 1014.04 1014.06 1013.98 1013.83 1013.64 1013.43 1013.23 1013.07 1012.97 1012.92 1012.90 1012.90 1012.90 1012.87 1012.82 1012.76 1012.69 1012.65 1012.65 1012.70 1012.80 1012.93 1013.06 1013.17 1013.21 1013.15 1012.99 1012.72 1012.37 1011.97
1009.49 1010.20 1010.89 1011.51 1012.03 1012.44 1012.76 1013.03 1013.26 1013.48 1013.70 1013.91 1014.07 1014.18 1014.22 1014.16 1014.03 1013.84 1013.63 1013.42 1013.24 1013.11 1013.02 1012.97 1012.94 1012.90 1012.85 1012.78 1012.69 1012.60 1012.54 1012.52 1012.55 1012.63 1012.76 1012.90 1013.02 1013.09 1013.06 1012.93 1012.69 1012.37 1011.99
1010.18 1010.89 1011.57 1012.15 1012.61 1012.96 1013.22 1013.41 1013.58 1013.74 1013.91 1014.08 1014.23 1014.33 1014.36 1014.32 1014.20 1014.02 1013.81 1013.61 1013.42 1013.28 1013.17 1013.10 1013.04 1012.98 1012.90 1012.79 1012.67 1012.55 1012.45 1012.40 1012.40 1012.45 1012.56 1012.69 1012.81 1012.89 1012.88 1012.79 1012.59 1012.32 1011.98
1011.07 1011.74 1012.36 1012.87 1013.26 1013.54 1013.72 1013.85 1013.96 1014.07 1014.20 1014.33 1014.44 1014.52 1014.54 1014.50 1014.38 1014.22 1014.02 1013.83 1013.65 1013.51 1013.40 1013.32 1013.25 1013.16 1013.05 1012.91 1012.76 1012.59 1012.45 1012.35 1012.30 1012.32 1012.39 1012.50 1012.60 1012.68 1012.69 1012.63 1012.47 1012.24 1011.95
1012.02 1012.63 1013.16 1013.59 1013.90 1014.10 1014.23 1014.31 1014.38 1014.46 1014.55 1014.65 1014.73 1014.79 1014.79 1014.73 1014.62 1014.46 1014.28 1014.10 1013.94 1013.81 1013.72 1013.64 1013.56 1013.46 1013.33 1013.16 1012.97 1012.76 1012.57 1012.42 1012.32 1012.29 1012.31 1012.38 1012.47 1012.53 1012.55 1012.50 1012.38 1012.19 1011.94
1012.94 1013.46 1013.89 1014.22 1014.45 1014.60 1014.69 1014.75 1014.80 1014.87 1014.94 1015.02 1015.09 1015.12 1015.09 1015.02 1014.89 1014.73 1014.56 1014.40 1014.26 1014.16 1014.09 1014.02 1013.95 1013.85 1013.71 1013.52 1013.30 1013.05 1012.82 1012.62 1012.47 1012.39 1012.37 1012.40 1012.45 1012.49 1012.50 1012.46 1012.35 1012.18 1011.97
1013.73 1014.15 1014.48 1014.72 1014.89 1015.00 1015.07 1015.13 1015.20 1015.27 1015.35 1015.42 1015.47 1015.47 1015.41 1015.31 1015.16 1014.99 1014.82 1014.68 1014.57 1014.50 1014.45 1014.42 1014.37 1014.28 1014.14 1013.94 1013.70 1013.44 1013.17 1012.93 1012.75 1012.62 1012.56 1012.55 1012.56 1012.57 1012.56 1012.51 1012.40 1012.24 1012.04
1014.35 1014.68 1014.92 1015.09 1015.21 1015.30 1015.38 1015.46 1015.55 1015.64 1015.73 1015.79 1015.81 1015.78 1015.69 1015.54 1015.36 1015.18 1015.01 1014.87 1014.79 1014.75 1014.74 1014.74 1014.72 1014.66 1014.55 1014.36 1014.13 1013.86 1013.58 1013.32 1013.11 1012.96 1012.87 1012.82 1012.79 1012.77 1012.73 1012.65 1012.52 1012.35 1012.14
1014.82 1015.06 1015.23 1015.35 1015.44 1015.53 1015.62 1015.72 1015.84 1015.95 1016.05 1016.10 1016.08 1016.01 1015.86 1015.67 1015.45 1015.24 1015.06 1014.94 1014.88 1014.87 1014.91 1014.95 1014.98 1014.96 1014.88 1014.73 1014.52 1014.27 1014.00 1013.75 1013.53 1013.37 1013.25 1013.17 1013.12 1013.06 1012.98 1012.87 1012.70 1012.50 1012.26
1015.16 1015.36 1015.48 1015.57 1015.64 1015.72 1015.83 1015.95 1016.08 1016.20 1016.29 1016.31 1016.25 1016.12 1015.92 1015.68 1015.42 1015.18 1014.99 1014.87 1014.84 1014.87 1014.95 1015.05 1015.13 1015.17 1015.14 1015.03 1014.86 1014.64 1014.40 1014.17 1013.96 1013.79 1013.67 1013.58 1013.49 1013.40 1013.29 1013.13 1012.92 1012.67 1012.40
1015.45 1015.62 1015.73 1015.80 1015.87 1015.95 1016.06 1016.18 1016.31 1016.41 1016.47 1016.45 1016.34 1016.15 1015.89 1015.60 1015.30 1015.04 1014.85 1014.74 1014.73 1014.81 1014.94 1015.09 1015.23 1015.32 1015.35 1015.29 1015.17 1014.99 1014.78 1014.58 1014.38 1014.22 1014.09 1013.98 1013.88 1013.76 1013.60 1013.40 1013.15 1012.85 1012.53
1015.75 1015.93 1016.03 1016.10 1016.16 1016.24 1016.34 1016.45 1016.56 1016.62 1016.63 1016.56 1016.40 1016.16 1015.85 1015.52 1015.20 1014.94 1014.75 1014.67 1014.69 1014.81 1014.98 1015.19 1015.38 1015.52 1015.59 1015.58 1015.49 1015.35 1015.17 1014.98 1014.80 1014.64 1014.50 1014.38 1014.25 1014.10 1013.91 1013.66 1013.37 1013.03 1012.66
1016.11 1016.30 1016.42 1016.50 1016.56 1016.63 1016.71 1016.79 1016.85 1016.88 1016.84 1016.71 1016.51 1016.23 1015.90 1015.56 1015.24 1014.98 1014.83 1014.78 1014.84 1014.99 1015.21 1015.45 1015.68 1015.85 1015.95 1015.96 1015.90 1015.77 1015.59 1015.40 1015.21 1015.04 1014.88 1014.73 1014.58 1014.39 1014.17 1013.89 1013.56 1013.17 1012.76
1016.55 1016.77 1016.91 1016.99 1017.05 1017.11 1017.16 1017.20 1017.22 1017.20 1017.12 1016.96 1016.73 1016.44 1016.11 1015.79 1015.50 1015.29 1015.17 1015.17 1015.27 1015.46 1015.71 1015.97 1016.21 1016.39 1016.49 1016.50 1016.42 1016.27 1016.08 1015.86 1015.64 1015.43 1015.24 1015.05 1014.86 1014.64 1014.38 1014.07 1013.71 1013.30 1012.85
1017.05 1017.30 1017.46 1017.55 1017.61 1017.64 1017.67 1017.68 1017.66 1017.61 1017.50 1017.33 1017.10 1016.83 1016.54 1016.26 1016.03 1015.88 1015.82 1015.87 1016.02 1016.24 1016.50 1016.76 1016.99 1017.15 1017.21 1017.19 1017.07 1016.87 1016.62 1016.35 1016.07 1015.81 1015.56 1015.32 1015.08 1014.83 1014.54 1014.21 1013.82 1013.39 1012.93
1017.61 1017.87 1018.04 1018.14 1018.19 1018.21 1018.21 1018.19 1018.15 1018.08 1017.97 1017.81 1017.61 1017.39 1017.16 1016.96 1016.81 1016.72 1016.73 1016.83 1017.01 1017.25 1017.50 1017.74 1017.94 1018.05 1018.06 1017.97 1017.78 1017.52 1017.20 1016.85 1016.50 1016.16 1015.85 1015.55 1015.26 1014.97 1014.66 1014.30 1013.91 1013.47 1013.00
1018.18 1018.44 1018.61 1018.71 1018.75 1018.75 1018.74 1018.71 1018.66 1018.59 1018.49 1018.36 1018.22 1018.06 1017.91 1017.79 1017.72 1017.71 1017.78 1017.92 1018.12 1018.36 1018.59 1018.80 1018.94 1018.98 1018.93 1018.76 1018.49 1018.15 1017.75 1017.32 1016.89 1016.48 1016.10 1015.75 1015.41 1015.08 1014.75 1014.39 1013.99 1013.56 1013.09
1018.74 1018.99 1019.15 1019.23 1019.26 1019.26 1019.23 1019.19 1019.14 1019.08 1019.01 1018.92 1018.83 1018.74 1018.67 1018.63 1018.63 1018.69 1018.80 1018.97 1019.18 1019.40 1019.60 1019.75 1019.83 1019.81 1019.68 1019.44 1019.11 1018.69 1018.22 1017.72 1017.23 1016.76 1016.33 1015.92 1015.56 1015.21 1014.86 1014.50 1014.11 1013.69 1013.24
1019.26 1019.49 1019.63 1019.69 1019.71 1019.70 1019.66 1019.62 1019.57 1019.52 1019.47 1019.42 1019.38 1019.34 1019.33 1019.34 1019.40 1019.50 1019.64 1019.81 1020.01 1020.20 1020.36 1020.46 1020.48 1020.40 1020.22 1019.93 1019.54 1019.07 1018.56 1018.03 1017.50 1017.00 1016.54 1016.11 1015.73 1015.37 1015.03 1014.68 1014.31 1013.91 1013.47
Thickness
5817 5816 5813 5811 5807 5804 5800 5797 5795 5793 5790 5789 5788 5785 5784 5785 5785 5784 5782 5781 5780 5779 5779 5780 5777 5777 5776 5774 5774 5771 5768 5767 5767 5765 5762 5764 5765 5763 5761 5759 5758 5756 5753
5818 5815 5814 5812 5809 5805 5802 5799 5796 5795 5792 5791 5789 5788 5787 5787 5786 5785 5782 5781 5780 5779 5780 5778 5779 5778 5775 5773 5772 5770 5768 5767 5767 5763 5759 5757 5758 5758 5762 5759 5756 5755 5753
5821 5818 5816 5814 5812 5808 5805 5804 5800 5797 5795 5793 5791 5789 5786 5785 5785 5784 5782 5782 5781 5780 5779 5779 5779 5778 5778 5776 5773 5770 5767 5765 5766 5766 5761 5754 5751 5754 5757 5756 5755 5752 5751
5830 5826 5822 5818 5816 5814 5812 5807 5803 5800 5797 5795 5792 5789 5786 5784 5784 5784 5784 5783 5782 5781 5780 5780 5779 5778 5779 5776 5775 5774 5770 5766 5764 5765 5763 5761 5757 5750 5747 5752 5753 5750 5747
5836 5832 5829 5825 5822 5820 5816 5811 5805 5801 5799 5797 5794 5790 5788 5788 5788 5787 5784 5783 5783 5781 5781 5780 5780 5779 5779 5776 5774 5772 5771 5769 5766 5764 5762 5759 5755 5753 5747 5743 5744 5747 5748
5841 5838 5835 5831 5826 5824 5820 5815 5808 5803 5801 5798 5796 5792 5790 5788 5787 5785 5784 5783 5784 5784 5783 5782 5780 5779 5779 5776 5774 5772 5770 5768 5765 5764 5762 5758 5755 5752 5749 5744 5742 5742 5745
5844 5840 5836 5832 5828 5825 5822 5818 5811 5805 5803 5800 5797 5795 5792 5789 5787 5786 5786 5785 5786 5785 5783 5783 5781 5780 5778 5776 5775 5772 5771 5768 5764 5762 5761 5760 5758 5756 5751 5746 5744 5741 5743
5847 5843 5840 5836 5831 5827 5823 5820 5814 5808 5806 5802 5799 5797 5794 5792 5792 5790 5790 5788 5788 5788 5786 5783 5781 5780 5778 5777 5774 5773 5771 5767 5764 5762 5759 5758 5758 5756 5752 5748 5743 5739 5740
5848 5846 5843 5839 5835 5831 5826 5822 5816 5811 5808 5805 5801 5798 5795 5794 5793 5791 5789 5789 5788 5788 5786 5783 5782 5780 5778 5776 5774 5772 5769 5767 5764 5762 5759 5757 5757 5755 5752 5749 5745 5739 5733
5849 5847 5845 5842 5839 5834 5829 5824 5819 5814 5810 5807 5803 5801 5797 5794 5792 5790 5788 5787 5787 5786 5784 5782 5781 5779 5777 5775 5772 5771 5768 5765 5762 5760 5757 5754 5755 5754 5751 5748 5745 5742 5736
5847 5845 5843 5841 5838 5834 5829 5823 5819 5814 5810 5808 5805 5801 5798 5796 5793 5790 5789 5787 5786 5784 5783 5781 5779 5778 5776 5774 5771 5770 5767 5763 5760 5758 5755 5752 5751 5750 5748 5746 5743 5740 5736
5844 5843 5841 5838 5834 5830 5828 5823 5819 5815 5812 5809 5805 5801 5798 5796 5794 5791 5790 5788 5786 5784 5782 5780 5778 5776 5775 5772 5769 5766 5765 5761 5758 5755 5752 5750 5749 5745 5744 5742 5740 5738 5735
5837 5837 5836 5832 5830 5828 5825 5822 5819 5816 5814 5810 5805 5801 5799 5796 5793 5792 5790 5787 5785 5783 5781 5778 5775 5773 5772 5770 5767 5764 5761 5759 5757 5754 5751 5749 5746 5742 5741 5738 5737 5736 5735
5830 5830 5828 5827 5825 5824 5822 5819 5817 5817 5814 5810 5805 5801 5798 5796 5794 5791 5788 5786 5783 5780 5777 5776 5773 5771 5769 5767 5765 5761 5758 5756 5754 5752 5749 5747 5744 5740 5737 5735 5732 5730 5727
5822 5822 5822 5821 5820 5819 5817 5816 5814 5814 5812 5808 5804 5801 5798 5795 5792 5788 5786 5783 5780 5778 5775 5773 5771 5769 5766 5764 5761 5758 5756 5752 5750 5748 5746 5743 5739 5735 5732 5731 5728 5725 5721
5816 5817 5816 5815 5814 5813 5812 5812 5810 5809 5808 5804 5802 5800 5796 5793 5789 5785 5782 5779 5776 5775 5772 5769 5767 5765 5764 5759 5755 5752 5751 5749 5746 5743 5742 5740 5736 5730 5726 5722 5719 5717 5715
5811 5811 5811 5811 5810 5810 5808 5806 5806 5805 5802 5799 5797 5794 5792 5788 5785 5783 5779 5775 5772 5770 5767 5765 5762 5760 5756 5752 5749 5746 5746 5744 5741 5739 5736 5736 5733 5727 5724 5719 5714 5711 5707
5805 5806 5807 5807 5808 5807 5806 5805 5803 5800 5796 5793 5791 5789 5787 5783 5781 5777 5773 5771 5768 5765 5762 5760 5758 5754 5751 5746 5743 5740 5740 5739 5736 5734 5731 5728 5725 5721 5717 5715 5711 5708 5705
5801 5801 5803 5804 5803 5802 5801 5798 5796 5794 5791 5788 5786 5785 5783 5779 5776 5772 5769 5766 5763 5760 5758 5756 5752 5748 5744 5740 5737 5733 5734 5732 5730 5728 5725 5722 5718 5712 5708 5706 5704 5701 5699
5794 5794 5796 5796 5795 5794 5794 5791 5788 5786 5784 5783 5782 5780 5778 5774 5770 5768 5764 5761 5757 5753 5752 5749 5747 5743 5739 5734 5730 5726 5729 5726 5724 5721 5719 5713 5709 5705 5700 5699 5697 5693 5692
5784 5785 5786 5785 5785 5785 5784 5781 5780 5778 5778 5777 5775 5772 5770 5767 5765 5761 5758 5753 5750 5747 5744 5741 5739 5736 5732 5727 5724 5720 5722 5720 5718 5716 5714 5709 5702 5697 5693 5691 5690 5686 5683
5772 5773 5774 5773 5775 5775 5774 5772 5770 5771 5770 5767 5765 5763 5761 5760 5758 5753 5749 5746 5741 5738 5735 5732 5730 5729 5726 5721 5717 5714 5711 5710 5710 5709 5706 5701 5694 5689 5685 5684 5681 5678 5675
5761 5763 5762 5762 5763 5765 5765 5762 5761 5761 5759 5756 5754 5752 5751 5750 5748 5744 5740 5737 5735 5733 5729 5726 5724 5722 5720 5715 5710 5706 5703 5700 5700 5699 5694 5689 5685 5681 5680 5675 5673 5670 5670
5750 5752 5751 5750 5751 5753 5753 5753 5752 5751 5748 5745 5743 5742 5740 5738 5737 5734 5733 5730 5728 5725 5722 5719 5717 5715 5712 5710 5706 5702 5698 5692 5691 5689 5685 5679 5677 5675 5673 5671 5668 5666 5664
5738 5739 5739 5739 5740 5741 5741 5741 5741 5739 5737 5735 5733 5732 5730 5729 5724 5723 5721 5720 5717 5715 5711 5711 5710 5706 5703 5699 5694 5693 5692 5688 5685 5680 5679 5677 5674 5672 5670 5667 5665 5661 5658
5726 5727 5727 5727 5728 5729 5728 5728 5728 5727 5725 5724 5722 5722 5721 5718 5715 5711 5707 5702 5702 5698 5697 5696 5695 5694 5690 5685 5681 5678 5675 5673 5670 5670 5672 5670 5668 5665 5663 5661 5658 5655 5652